Craig, CO

8:26 PM MDT on July 29, 2016 (GMT -0600)
Craig-Moffat

Weather History for KCAG - January, 2014

Change the Weather History Date:

Thursday, January 2, 2014

  Actual Average Record
Temperature  
Mean Temperature 13 °F 15 °F  
Max Temperature 31 °F 29 °F 50 °F (2012)
Min Temperature -5 °F 1 °F -27 °F (2016)
Degree Days  
Heating Degree Days 52 50  
Month to date heating degree days 100 100  
Since 1 July heating degree days 3633 3656  
Cooling Degree Days 0 0  
Month to date cooling degree days 0 0  
Year to date cooling degree days 0 0  
Moisture  
Dew Point 2 °F    
Average Humidity 74    
Maximum Humidity 91    
Minimum Humidity 57    
Precipitation  
Precipitation 0.00 in 0.03 in 0.32 in (2004)
Month to date precipitation 0.04 0.06  
Year to date precipitation 0.04 0.06  
Sea Level Pressure  
Sea Level Pressure 30.58 in    
Wind  
Wind Speed 1 mph (SW)    
Max Wind Speed 7 mph    
Max Gust Speed 8 mph    
Visibility 10 miles    
Events      
T = Trace of Precipitation, MM = Missing Value Source: NWS Daily Summary

Daily Weather History Graph

Daily Weather History Graph

Search for Another Location

Airport or City:

Trip Planner

Search our weather history database for the weather conditions in past years. The results will help you decide how hot, cold, wet, or windy it might be!

Date:

Astronomy

Jan. 02, 2014 Rise Set
Actual Time 7:33 AM MST 4:55 PM MST
Civil Twilight 7:02 AM MST 5:25 PM MST
Nautical Twilight 6:28 AM MST 5:59 PM MST
Astronomical Twilight 5:55 AM MST 6:33 PM MST
Moon 8:16 AM MST (1/2) 6:56 PM MST (1/2)
Length of Visible Light 10h 22m
Length of Day
9h 21m
Waxing Crescent, 3% of the Moon is Illuminated
Jan 2
Waxing Crescent
Jan 7
First Quarter
Jan 15
Full
Jan 23
Last Quarter
Jan 30
New

Hourly Weather History & Observations

Time (MST) Temp. Windchill Dew Point Humidity Pressure Visibility Wind Dir Wind Speed Gust Speed Precip Events Conditions
12:53 AM -0.9 °F - -5.1 °F 83% 30.58 in 10.0 mi Calm Calm - N/A   Clear
1:53 AM -0.9 °F - -6.0 °F 79% 30.58 in 10.0 mi Calm Calm - N/A   Clear
2:53 AM -2.9 °F - -9.9 °F 72% 30.60 in 10.0 mi Calm Calm - N/A   Clear
3:53 AM -2.9 °F - -9.9 °F 72% 30.60 in 10.0 mi Calm Calm - N/A   Clear
4:53 AM -2.9 °F -11.2 °F -9.0 °F 75% 30.65 in 10.0 mi WSW 3.5 mph - N/A   Clear
5:53 AM -4.0 °F - -11.0 °F 72% 30.65 in 10.0 mi Calm Calm - N/A   Clear
6:53 AM -4.0 °F - -11.9 °F 69% 30.67 in 10.0 mi Calm Calm - N/A   Clear
7:53 AM -4.0 °F - -9.9 °F 76% 30.70 in 10.0 mi Calm Calm - N/A   Clear
8:53 AM 3.9 °F - -2.9 °F 73% 30.69 in 10.0 mi Calm Calm - N/A   Clear
9:53 AM 12.0 °F 4.1 °F 3.9 °F 70% 30.66 in 10.0 mi SW 4.6 mph - N/A   Clear
10:53 AM 15.1 °F 7.7 °F 7.0 °F 70% 30.65 in 10.0 mi SW 4.6 mph - N/A   Clear
11:53 AM 16.0 °F 7.4 °F 10.9 °F 81% 30.61 in 10.0 mi SW 5.8 mph - N/A   Clear
12:53 PM 21.0 °F 13.4 °F 12.9 °F 71% 30.57 in 10.0 mi SW 5.8 mph - N/A   Clear
1:53 PM 23.0 °F 15.8 °F 14.0 °F 68% 30.54 in 10.0 mi SW 5.8 mph - N/A   Clear
2:53 PM 26.1 °F - 16.0 °F 66% 30.51 in 10.0 mi Calm Calm - N/A   Mostly Cloudy
3:53 PM 28.0 °F - 15.1 °F 58% 30.50 in 10.0 mi Calm Calm - N/A   Mostly Cloudy
4:53 PM 26.1 °F - 14.0 °F 60% 30.50 in 10.0 mi Calm Calm - N/A   Scattered Clouds
5:53 PM 18.0 °F - 10.9 °F 74% 30.54 in 10.0 mi Calm Calm - N/A   Mostly Cloudy
6:53 PM 10.9 °F 4.7 °F 6.1 °F 81% 30.56 in 10.0 mi South 3.5 mph - N/A   Clear
7:53 PM 10.9 °F - 7.0 °F 84% 30.56 in 10.0 mi Calm Calm - N/A   Clear
8:53 PM 7.0 °F - 3.0 °F 84% 30.53 in 10.0 mi Calm Calm - N/A   Clear
9:53 PM 3.9 °F - 1.0 °F 88% 30.51 in 10.0 mi Calm Calm - N/A   Clear
10:53 PM 3.0 °F - -0.9 °F 84% 30.49 in 10.0 mi Calm Calm - N/A   Clear
11:53 PM 1.9 °F - -2.9 °F 80% 30.48 in 10.0 mi Calm Calm - N/A   Clear